{"data":{"norad_id":56778,"intl_designator":"2023-078M","name":"STARLINK-6304","alt_names":[],"object_type":"PAYLOAD","status":"ACTIVE","operator":null,"country":"US","launch_date":"2023-05-31","launch_site_code":"AFWTR","launch_vehicle":null,"mission":null,"orbit_class":"UNKNOWN","rcs_meters":null,"size_class":null,"mass_kg":null,"dimensions":null,"purposes":["comms"],"wikipedia_slug":null,"has_3d_model":false,"image_url":null,"decayed_at":null,"tle_current":{"epoch":"2026-09-20T22:00:03.000096Z","epoch_age_seconds":78953,"freshness":"FRESH","line1":"1 56778U 23078M   26263.91670139 -.00001801  00000+0 -10660-3 0  9995","line2":"2 56778  70.0005 192.1812 0002290 233.2095 269.9410 15.09202695  5711","mean_motion":15.09202695,"eccentricity":0.000229,"inclination_deg":70.0005,"raan_deg":192.1812,"arg_perigee_deg":233.2095,"mean_anomaly_deg":269.941,"bstar":-0.0001066,"rev_number":571,"period_min":95.414618909092,"perigee_km":537.05105668639,"apogee_km":540.21893826123,"semimajor_km":6916.7719974738,"source":"CELESTRAK","updated_at":"2026-09-21T09:00:33.487269Z"}}}